Location: Holcomb Observatory
(44.4922°N, 73.1654°W)
Time: 10:45:52
(UTC-04:00)

Daily predictions for brighter satellites

Satellite Brightness Start Highest point End
(mag) Time Altitude Azimuth Time Altitude Azimuth Time Altitude Azimuth
YAOGAN 1 3.9 19:05:57 10° S 19:10:06 46° W 19:14:18 10° NNW
Cosmos 1943 Rocket 3.8 19:10:09 10° NW 19:15:20 40° WSW 19:20:30 10° S
USA 234 3.9 19:09:43 10° SE 19:16:10 59° SW 19:22:39 10° NW
SKYMED 2 3.9 19:13:42 10° N 19:18:03 72° WNW 19:22:22 10° SSW
Cosmos 1606 Rocket 4.0 19:14:08 10° SSW 19:18:27 68° W 19:22:46 10° N
Cosmos 1953 Rocket 4.0 19:16:19 10° NNW 19:20:38 66° W 19:24:54 10° S
Thor Agena Rocket 3.7 19:15:31 10° NNE 19:20:39 53° E 19:25:42 10° S
BREEZE-M DEB 4.5 19:09:46 10° WNW 19:21:35 58° SW 19:25:04 10° SE
DMSP B5D1-3 4.5 19:16:43 10° NNE 19:21:50 74° ESE 19:26:55 10° S
Cosmos 1805 4.4 19:20:57 10° SE 19:24:00 22° E 19:27:03 10° NE
FREGAT/IRIS 2.8 19:22:36 10° SSE 19:25:31 48° ENE 19:28:27 10° N
GP-B 4.4 19:22:28 10° NNE 19:25:48 20° E 19:29:08 10° SE
Resurs 01 Rocket 2.8 19:24:46 10° ESE 19:28:13 23° ENE 19:31:40 10° NNE
Cosmos 1340 Rocket 4.4 19:24:51 10° NNW 19:28:41 40° W 19:32:31 10° SSW
Cosmos 2058 Rocket 3.1 19:24:21 10° S 19:28:42 88° W 19:33:08 10° N
Meteor 2-13 Rocket 4.4 19:23:35 10° S 19:29:41 86° E 19:35:47 10° N
SL-08 ROCKET BODY 4.4 19:24:16 10° S 19:30:09 85° E 19:36:11 10° N
CZ-2D R/B 4.3 19:29:03 10° SE 19:32:13 26° ENE 19:35:26 10° NNE
Cosmos 372 Rocket 4.2 19:29:33 10° NNW 19:34:43 53° ENE 19:39:51 10° SE
Cosmos 2184 Rocket 4.0 19:30:15 10° S 19:36:29 66° E 19:42:48 10° NNE
Cosmos 1697 Rocket 4.3 19:34:40 10° N 19:38:24 18° NE 19:41:12 13° ENE
Cosmos 1125 Rocket 3.5 19:34:18 10° NNW 19:39:35 66° ENE 19:44:52 10° SSE
Cosmos 1980 Rocket 4.2 19:38:09 10° NNE 19:40:20 12° NE 19:42:31 10° ENE
Meteor 1-24 Rocket 3.8 19:34:50 10° N 19:40:50 81° E 19:46:36 10° SSE
Geosat 4.1 19:42:09 10° SSE 19:47:11 83° WSW 19:52:15 10° NNW
Envisat 3.8 19:44:02 13° ESE 19:47:46 31° ENE 19:52:14 10° N
ATLAS 2AS CENTAUR R/B 3.7 19:40:19 10° NNW 19:47:48 39° NE 19:53:09 17° E
Milstar 3 Cent rocket 4.1 19:46:13 10° SSW 19:47:50 11° S 19:49:22 10° SSE
Cosmos 1356 3.8 19:44:57 10° N 19:48:18 43° ENE 19:51:09 13° SSE
FENGYUN 3A 4.3 19:47:02 10° S 19:52:18 58° W 19:57:38 10° NNW
Cosmos 2327 Rocket 4.4 19:47:56 10° S 19:54:02 81° E 20:00:09 10° N
USA 186 3.5 19:55:56 12° NNE 19:55:56 12° NNE 19:56:11 10° NNE
H-2A R/B 3.0 19:58:06 10° S 20:01:49 68° W 20:05:36 10° NNW
Cosmos 1544 3.0 19:59:12 10° S 20:02:47 83° W 20:06:26 10° N
SJ-6B 3.0 19:59:30 10° S 20:03:28 76° WSW 20:07:22 10° NNW
Cosmos 1953 2.6 20:05:19 10° SSE 20:09:08 42° E 20:12:59 10° NNE
Cosmos 540 Rocket 3.6 20:05:52 10° SSW 20:10:58 77° WNW 20:16:07 10° NNE
Cosmos 292 Rocket 3.8 20:11:23 10° S 20:16:07 57° ESE 20:20:54 10° NNE
SL-27 R/B 2.3 20:12:49 10° SSW 20:16:26 77° ESE 20:20:06 10° NNE
BREEZE-M DEB (TANK) 4.0 20:12:46 10° WNW 20:16:51 62° NNE 20:25:06 22° E
Cosmos 1076 Rocket 4.0 20:13:51 10° N 20:17:57 38° ENE 20:18:25 37° E
SJ 16-02 1.4 20:17:23 10° NNW 20:21:47 76° WSW 20:24:56 18° S
BREEZE M DEB (TANK) 3.1 20:17:21 10° W 20:22:45 40° NNW 20:23:46 29° NNE
COSMOS 2406 3.9 20:17:50 10° SW 20:23:27 57° WNW 20:29:08 10° NNE
Cosmos 1674 2.5 20:21:05 10° N 20:24:50 72° E 20:25:44 48° SSE
Cosmos 2369 3.7 20:26:27 10° NNW 20:32:05 64° ENE 20:34:08 39° SE
Resurs 1-3 3.6 20:33:13 26° S 20:35:40 82° WSW 20:40:04 10° NNW
ISS -3.3 20:37:54 10° WSW 20:40:35 56° WSW 20:40:35 56° WSW
Cosmos 2154 Rocket 4.2 20:35:53 10° SSW 20:42:05 74° W 20:48:23 10° N
MOS 1-B Rocket 3.9 20:37:07 15° SSE 20:42:10 84° WSW 20:47:50 10° NNW
BREEZE-M DEB (TANK) 2.9 20:37:53 10° WSW 20:47:38 76° SSE 20:48:25 59° E
Meteor 1-21 Rocket 4.3 20:42:16 10° NNW 20:48:01 78° W 20:51:42 22° S
Cosmos 1733 4.1 20:50:20 39° N 20:50:20 39° N 20:52:50 10° N
Cosmos 1408 Rocket 4.4 20:49:36 10° N 20:52:34 38° NNE 20:52:34 38° NNE
Spot 2 Rocket 3.8 20:50:59 24° S 20:53:58 63° WSW 20:58:59 10° NNW
Cosmos 1758 4.4 20:50:59 10° SSW 20:54:50 45° WNW 20:58:42 10° N
Cosmos 2341 Rocket 4.0 20:51:05 10° S 20:57:18 79° W 21:03:34 10° N
Meteor 2-21 4.3 20:54:21 18° S 20:59:05 77° E 21:05:13 10° NNE
SJ-11-01 4.1 20:58:56 78° SSE 20:59:15 89° ENE 21:04:01 10° NNW
Cosmos 2082 Rocket 4.0 21:03:55 18° NE 21:03:55 18° NE 21:05:22 10° NNE
GP-B 4.5 20:59:08 10° NNW 21:03:15 38° W 21:07:21 10° SSW
Resurs 01 Rocket 2.9 21:01:55 20° SSW 21:04:29 38° W 21:08:37 10° NNW
Cosmos 2278 3.8 21:00:12 10° NNW 21:05:53 75° WSW 21:07:09 54° S
Cosmos 1959 Rocket 4.4 21:05:20 61° SE 21:06:04 66° E 21:12:18 10° NNE
Helios 1A 4.3 21:10:16 32° N 21:10:16 32° N 21:12:36 10° N
ERS-1 Rocket 3.9 21:12:21 36° NNE 21:12:21 36° NNE 21:15:42 10° N
Meteor 2-15 Rocket 4.3 21:05:13 10° N 21:11:20 84° E 21:12:14 66° SSE
Cosmos 1939 Rocket 3.7 21:12:33 47° WNW 21:12:33 47° WNW 21:15:43 10° NNW
Cosmos 2366 rocket 3.9 21:14:27 69° E 21:14:30 69° E 21:20:45 10° NNE
Cosmos 1656 3.7 21:09:53 10° NNW 21:15:34 76° WSW 21:16:08 69° SSW
Cosmos 2322 Rocket 3.9 21:11:49 10° N 21:14:57 19° NNE 21:14:57 19° NNE
Cosmos 1470 4.3 21:21:42 34° NW 21:21:42 34° NW 21:24:26 10° N
Cosmos 2218 Rocket 3.8 21:20:07 69° S 21:20:56 85° E 21:27:10 10° N
Cosmos 2360 Rocket 4.5 21:20:58 10° NNE 21:22:22 12° NNE 21:22:22 12° NNE
Cosmos 1697 Rocket 2.6 21:17:31 10° NNW 21:22:57 82° N 21:22:57 82° N
Cosmos 2285 Rocket 4.2 21:18:22 10° SSW 21:24:46 71° WNW 21:31:15 10° NNE
Cosmos 1818 4.0 21:20:01 10° NNW 21:24:30 52° N 21:24:30 52° N
Cosmos 1980 Rocket 2.7 21:20:04 10° NNW 21:24:38 49° NNE 21:24:38 49° NNE
Envisat 4.4 21:24:15 22° SW 21:26:43 34° W 21:31:21 10° NNW
SL-08 R/B 4.4 21:31:02 82° NE 21:31:02 82° NE 21:37:02 10° N
Meteor 2-16 Rocket 4.4 21:35:32 78° NNW 21:35:32 78° NNW 21:41:15 10° N
ATLAS 2AS CENTAUR R/B 3.0 21:31:28 10° NW 21:39:24 68° WSW 21:40:36 60° SSW
SL-8 Rocket 4.4 21:38:35 30° SW 21:41:30 57° WNW 21:47:36 10° N
ARGOS 4.1 21:46:44 41° N 21:46:44 41° N 21:50:15 10° N
Cosmos 1727 Rocket 4.0 21:38:43 10° N 21:44:39 76° NW 21:44:39 76° NW
NOSS 3-4 (A) 4.3 21:44:51 10° NNW 21:50:59 49° NNE 21:50:59 49° NNE
NOSS 3-4 (C) 4.3 21:44:57 10° NNW 21:51:05 48° NNE 21:51:05 48° NNE
H-2A R/B 3.8 21:57:09 25° N 21:57:09 25° N 21:59:19 10° N
SL-16 R/B 3.7 21:50:06 10° NNW 21:53:07 27° NNE 21:53:07 27° NNE
USA 267 4.4 22:03:34 30° NNE 22:04:39 32° N 22:10:16 10° NW
Cosmos 1833 Rocket 4.5 22:20:14 26° N 22:20:14 26° N 22:22:55 10° NNE
Cosmos 2082 Rocket 4.2 22:45:39 24° NNW 22:45:39 24° NNW 22:49:02 10° N
Cosmos 2322 Rocket 4.4 22:55:00 10° NNW 22:56:45 21° NNW 22:56:45 21° NNW
